When you browse on this site, cookies collect data to enhance your experience and personalize the content and advertising you see.
Visit our Privacy Policy to learn more. By continuing to use the site, you agree to this use of cookies and data.
  • In Hungary
  • List of Countries
  • For 7 days
  • Water Temperature
  • Weather Map
  • News
  • Weather Widgets
  • user-avatar
    Login

    Hourly Weather Roschino

    Today, 4 June, Thursday

    Time Temperature Precipitation Wind Pressure Humidity
    00:00 +18°C° 0 mm 7 mps 747 mmHg 67%
    01:00 +19°C° 0 mm 6 mps 747 mmHg 68%
    02:00 +17°C° 0 mm 6 mps 747 mmHg 69%
    03:00 +17°C° 0 mm 6 mps 747 mmHg 71%
    04:00 +17°C° 0 mm 6 mps 747 mmHg 70%
    05:00 +17°C° 0.2 mm 6 mps 746 mmHg 70%
    06:00 +17°C° 0.2 mm 7 mps 746 mmHg 71%
    07:00 +18°C° 0.2 mm 8 mps 746 mmHg 72%
    08:00 +20°C° 0.1 mm 8 mps 746 mmHg 70%
    09:00 +21°C° 0.1 mm 8 mps 746 mmHg 67%
    10:00 +22°C° 0.1 mm 8 mps 746 mmHg 65%
    11:00 +23°C° 0 mm 8 mps 747 mmHg 62%
    12:00 +24°C° 0 mm 8 mps 747 mmHg 58%
    13:00 +27°C° 0 mm 9 mps 747 mmHg 55%
    14:00 +27°C° 0.2 mm 8 mps 747 mmHg 55%
    15:00 +27°C° 0.2 mm 7 mps 747 mmHg 56%
    16:00 +27°C° 0.2 mm 6 mps 747 mmHg 56%
    17:00 +25°C° 0.5 mm 5 mps 747 mmHg 64%
    18:00 +22°C° 0.5 mm 4 mps 747 mmHg 72%
    19:00 +20°C° 0.5 mm 3 mps 747 mmHg 79%
    20:00 +20°C° 0.1 mm 4 mps 748 mmHg 75%
    21:00 +20°C° 0.1 mm 4 mps 748 mmHg 71%
    22:00 +19°C° 0.1 mm 4 mps 748 mmHg 67%
    23:00 +19°C° 0.1 mm 4 mps 748 mmHg 66%

    Tomorrow, 5 June, Friday

    Time Temperature Precipitation Wind Pressure Humidity
    00:00 +19°C° 0.1 mm 4 mps 749 mmHg 65%
    01:00 +18°C° 0.1 mm 4 mps 749 mmHg 64%
    02:00 +18°C° 0.1 mm 4 mps 749 mmHg 63%
    03:00 +17°C° 0.1 mm 5 mps 750 mmHg 61%
    04:00 +17°C° 0.1 mm 5 mps 750 mmHg 60%
    05:00 +16°C° 0 mm 6 mps 750 mmHg 62%
    06:00 +16°C° 0 mm 6 mps 750 mmHg 64%
    07:00 +16°C° 0 mm 7 mps 750 mmHg 66%
    08:00 +17°C° 0 mm 7 mps 751 mmHg 64%
    09:00 +18°C° 0 mm 7 mps 751 mmHg 62%
    10:00 +20°C° 0 mm 8 mps 752 mmHg 60%
    11:00 +20°C° 0 mm 7 mps 751 mmHg 61%
    12:00 +18°C° 0 mm 7 mps 751 mmHg 62%
    13:00 +18°C° 0 mm 7 mps 751 mmHg 63%
    14:00 +20°C° 0 mm 6 mps 751 mmHg 60%
    15:00 +22°C° 0 mm 6 mps 751 mmHg 57%
    16:00 +24°C° 0 mm 6 mps 751 mmHg 54%
    17:00 +23°C° 0 mm 5 mps 751 mmHg 56%
    18:00 +23°C° 0 mm 4 mps 751 mmHg 59%
    19:00 +22°C° 0 mm 4 mps 751 mmHg 61%
    20:00 +21°C° 0 mm 5 mps 751 mmHg 59%
    21:00 +20°C° 0 mm 6 mps 751 mmHg 58%
    22:00 +20°C° 0 mm 7 mps 751 mmHg 56%
    23:00 +19°C° 0.1 mm 6 mps 751 mmHg 59%

    Day after tomorrow, 6 June, Saturday

    Time Temperature Precipitation Wind Pressure Humidity
    00:00 +17°C° 0.1 mm 5 mps 751 mmHg 62%
    01:00 +16°C° 0.1 mm 5 mps 751 mmHg 65%
    02:00 +17°C° 0.7 mm 4 mps 751 mmHg 68%
    03:00 +15°C° 0.7 mm 4 mps 751 mmHg 72%
    04:00 +15°C° 0.7 mm 4 mps 751 mmHg 75%
    05:00 +15°C° 0 mm 5 mps 752 mmHg 72%
    06:00 +15°C° 0 mm 5 mps 752 mmHg 68%
    07:00 +16°C° 0 mm 6 mps 752 mmHg 65%
    08:00 +17°C° 0.1 mm 6 mps 752 mmHg 67%
    09:00 +17°C° 0.1 mm 6 mps 752 mmHg 68%
    10:00 +19°C° 0.1 mm 6 mps 753 mmHg 70%
    11:00 +19°C° 0.2 mm 6 mps 753 mmHg 73%
    12:00 +19°C° 0.2 mm 6 mps 753 mmHg 76%
    13:00 +19°C° 0.2 mm 6 mps 753 mmHg 78%
    14:00 +19°C° 0.1 mm 5 mps 753 mmHg 78%
    15:00 +19°C° 0.1 mm 5 mps 753 mmHg 77%
    16:00 +19°C° 0.1 mm 5 mps 753 mmHg 77%
    17:00 +19°C° 0 mm 5 mps 753 mmHg 74%
    18:00 +19°C° 0 mm 4 mps 753 mmHg 72%
    19:00 +19°C° 0 mm 3 mps 753 mmHg 70%
    20:00 +17°C° 0 mm 3 mps 753 mmHg 73%
    21:00 +16°C° 0 mm 3 mps 753 mmHg 76%
    22:00 +14°C° 0 mm 3 mps 754 mmHg 78%
    23:00 +14°C° 0 mm 3 mps 754 mmHg 78%

    7 June, Sunday

    Time Temperature Precipitation Wind Pressure Humidity
    00:00 +13°C° 0 mm 3 mps 754 mmHg 77%
    01:00 +14°C° 0 mm 2 mps 754 mmHg 77%
    02:00 +14°C° 0 mm 2 mps 754 mmHg 76%
    03:00 +14°C° 0 mm 2 mps 754 mmHg 76%
    04:00 +13°C° 0 mm 2 mps 754 mmHg 75%
    05:00 +15°C° 0 mm 2 mps 754 mmHg 72%
    06:00 +16°C° 0 mm 3 mps 754 mmHg 70%
    07:00 +17°C° 0 mm 3 mps 754 mmHg 67%
    08:00 +19°C° 0 mm 3 mps 755 mmHg 62%
    09:00 +21°C° 0 mm 4 mps 755 mmHg 57%
    10:00 +22°C° 0 mm 4 mps 755 mmHg 52%
    11:00 +23°C° 0 mm 4 mps 755 mmHg 49%
    12:00 +25°C° 0 mm 4 mps 755 mmHg 46%
    13:00 +26°C° 0 mm 4 mps 755 mmHg 42%
    14:00 +26°C° 0 mm 4 mps 755 mmHg 42%
    15:00 +26°C° 0 mm 4 mps 754 mmHg 42%
    16:00 +27°C° 0 mm 3 mps 754 mmHg 42%
    17:00 +26°C° 0 mm 3 mps 754 mmHg 46%
    18:00 +25°C° 0 mm 2 mps 754 mmHg 50%
    19:00 +25°C° 0 mm 1 mps 753 mmHg 54%
    20:00 +23°C° 0 mm 1 mps 753 mmHg 56%
    21:00 +22°C° 0 mm 1 mps 754 mmHg 58%
    22:00 +20°C° 0 mm 1 mps 754 mmHg 59%
    23:00 +18°C° 0 mm 2 mps 753 mmHg 59%

    8 June, Monday

    Time Temperature Precipitation Wind Pressure Humidity
    00:00 +18°C° 0 mm 3 mps 753 mmHg 59%
    01:00 +17°C° 0 mm 3 mps 753 mmHg 59%
    02:00 +17°C° 0 mm 3 mps 753 mmHg 57%
    03:00 +17°C° 0 mm 3 mps 754 mmHg 55%
    04:00 +17°C° 0 mm 3 mps 754 mmHg 52%
    05:00 +17°C° 0 mm 2 mps 754 mmHg 55%
    06:00 +18°C° 0 mm 2 mps 754 mmHg 58%
    07:00 +19°C° 0 mm 1 mps 754 mmHg 61%
    08:00 +19°C° 0 mm 2 mps 754 mmHg 58%
    09:00 +20°C° 0 mm 3 mps 754 mmHg 55%
    10:00 +22°C° 0 mm 4 mps 755 mmHg 53%
    11:00 +23°C° 0 mm 4 mps 755 mmHg 49%
    12:00 +25°C° 0 mm 4 mps 755 mmHg 45%
    13:00 +27°C° 0 mm 4 mps 755 mmHg 41%
    14:00 +27°C° 0 mm 4 mps 755 mmHg 40%
    15:00 +27°C° 0 mm 3 mps 755 mmHg 39%
    16:00 +27°C° 0 mm 3 mps 754 mmHg 38%
    17:00 +26°C° 0 mm 2 mps 754 mmHg 43%
    18:00 +26°C° 0 mm 2 mps 754 mmHg 49%
    19:00 +25°C° 0 mm 1 mps 754 mmHg 54%
    20:00 +23°C° 0 mm 2 mps 754 mmHg 56%
    21:00 +21°C° 0 mm 2 mps 754 mmHg 58%
    22:00 +19°C° 0 mm 3 mps 755 mmHg 60%
    23:00 +19°C° 0 mm 3 mps 755 mmHg 61%

    9 June, Tuesday

    Time Temperature Precipitation Wind Pressure Humidity
    00:00 +19°C° 0 mm 4 mps 755 mmHg 61%
    01:00 +18°C° 0 mm 4 mps 755 mmHg 62%
    02:00 +18°C° 0 mm 4 mps 755 mmHg 60%
    03:00 +18°C° 0 mm 4 mps 755 mmHg 59%
    04:00 +17°C° 0 mm 4 mps 755 mmHg 58%
    05:00 +19°C° 0 mm 4 mps 756 mmHg 57%
    06:00 +20°C° 0 mm 4 mps 756 mmHg 57%
    07:00 +21°C° 0 mm 4 mps 756 mmHg 57%
    08:00 +23°C° 0 mm 4 mps 757 mmHg 52%
    09:00 +26°C° 0 mm 5 mps 757 mmHg 48%
    10:00 +27°C° 0 mm 5 mps 757 mmHg 43%
    11:00 +28°C° 0 mm 4 mps 757 mmHg 41%
    12:00 +29°C° 0 mm 4 mps 757 mmHg 38%
    13:00 +30°C° 0 mm 4 mps 758 mmHg 35%
    14:00 +30°C° 0 mm 4 mps 757 mmHg 34%
    15:00 +30°C° 0 mm 3 mps 757 mmHg 33%
    16:00 +30°C° 0 mm 3 mps 757 mmHg 32%
    17:00 +29°C° 0 mm 2 mps 757 mmHg 37%
    18:00 +28°C° 0 mm 2 mps 757 mmHg 42%
    19:00 +27°C° 0 mm 1 mps 757 mmHg 46%
    20:00 +26°C° 0 mm 1 mps 757 mmHg 48%
    21:00 +24°C° 0 mm 2 mps 757 mmHg 51%
    22:00 +21°C° 0 mm 2 mps 757 mmHg 53%
    23:00 +21°C° 0 mm 2 mps 757 mmHg 53%
    Show more